EW5655 Weather Reports


Display with metric or nautical units.
time (UTC)temp
F
wind
direction
speed
MPH
gust
MPH
rain 1hr
in
rain 24hr
in
rain mn
in
humidity
%
barometer
mb
20260903211546 95 309 4.0 12.0 0.00 0.00 0.00 27 1015.9
20260903211036 95 315 7.0 12.0 0.00 0.00 0.00 27 1015.9
20260903210535 95 257 4.0 10.0 0.00 0.00 0.00 28 1016.1
20260903210034 95 232 5.0 10.0 0.00 0.00 0.00 28 1016.2
20260903205537 96 267 6.0 13.0 0.00 0.00 0.00 27 1016.3
20260903205031 96 331 5.0 13.0 0.00 0.00 0.00 27 1016.4
20260903204530 95 310 5.0 9.0 0.00 0.00 0.00 26 1016.4
20260903204034 94 232 4.0 9.0 0.00 0.00 0.00 28 1016.5
20260903203528 95 281 5.0 9.0 0.00 0.00 0.00 27 1016.5
20260903203032 95 178 5.0 9.0 0.00 0.00 0.00 27 1016.6
20260903202528 93 303 3.0 9.0 0.00 0.00 0.00 28 1016.6
20260903202028 92 248 6.0 9.0 0.00 0.00 0.00 29 1016.8
20260903201528 92 203 0.0 9.0 0.00 0.00 0.00 27 1016.8
20260903201028 92 350 4.0 9.0 0.00 0.00 0.00 28 1016.8
20260903200526 93 254 6.0 9.0 0.00 0.00 0.00 28 1016.9
20260903200026 94 267 3.0 9.0 0.00 0.00 0.00 28 1017.0
20260903195524 93 72 1.0 9.0 0.00 0.00 0.00 28 1017.0
20260903195028 94 199 2.0 7.0 0.00 0.00 0.00 26 1017.1
20260903194523 95 48 0.0 5.0 0.00 0.00 0.00 28 1017.2
20260903194021 92 286 1.0 5.0 0.00 0.00 0.00 27 1017.3
20260903193521 92 250 1.0 7.0 0.00 0.00 0.00 26 1017.4
20260903193020 91 227 4.0 7.0 0.00 0.00 0.00 29 1017.5
20260903192520 91 281 2.0 8.0 0.00 0.00 0.00 31 1017.5
20260903192020 90 194 4.0 8.0 0.00 0.00 0.00 31 1017.6
20260903191526 90 157 4.0 8.0 0.00 0.00 0.00 31 1017.6
20260903191019 90 209 3.0 8.0 0.00 0.00 0.00 33 1017.6
20260903190519 90 339 2.0 8.0 0.00 0.00 0.00 31 1017.7
20260903190020 91 214 4.0 10.0 0.00 0.00 0.00 31 1017.8
20260903185519 92 276 5.0 10.0 0.00 0.00 0.00 30 1017.9
20260903185018 92 140 2.0 7.0 0.00 0.00 0.00 31 1018.0
20260903184516 91 252 3.0 8.0 0.00 0.00 0.00 30 1018.1
20260903184015 91 204 4.0 8.0 0.00 0.00 0.00 31 1018.2
20260903183515 90 145 1.0 7.0 0.00 0.00 0.00 30 1018.2
20260903183014 90 202 2.0 7.0 0.00 0.00 0.00 32 1018.4
20260903182512 89 244 4.0 7.0 0.00 0.00 0.00 34 1018.5
20260903182012 88 228 1.0 8.0 0.00 0.00 0.00 35 1018.5
20260903181512 88 207 4.0 8.0 0.00 0.00 0.00 35 1018.6
20260903181015 88 169 0.0 5.0 0.00 0.00 0.00 35 1018.7
20260903180512 88 169 1.0 5.0 0.00 0.00 0.00 34 1018.7
20260903180016 89 132 1.0 5.0 0.00 0.00 0.00 33 1018.8
20260903175511 88 165 2.0 8.0 0.00 0.00 0.00 34 1018.8
20260903175011 89 220 3.0 8.0 0.00 0.00 0.00 35 1018.9
20260903174511 89 118 2.0 7.0 0.00 0.00 0.00 34 1019.0
20260903174009 88 153 2.0 6.0 0.00 0.00 0.00 35 1019.0
20260903173513 87 146 0.0 5.0 0.00 0.00 0.00 35 1019.0
20260903173009 88 187 2.0 5.0 0.00 0.00 0.00 35 1019.0
20260903172509 87 303 0.0 2.0 0.00 0.00 0.00 36 1019.0
20260903172007 87 83 0.0 2.0 0.00 0.00 0.00 38 1019.1
20260903171506 86 5 0.0 6.0 0.00 0.00 0.00 38 1019.1
20260903171004 86 296 4.0 6.0 0.00 0.00 0.00 38 1019.1
20260903170503 86 281 0.0 5.0 0.00 0.00 0.00 39 1019.1
20260903170003 85 348 2.0 5.0 0.00 0.00 0.00 39 1019.1
20260903165501 85 234 0.0 5.0 0.00 0.00 0.00 41 1019.1
20260903165001 85 234 3.0 6.0 0.00 0.00 0.00 43 1019.1
20260903164608 83 184 1.0 6.0 0.00 0.00 0.00 44 1019.2
20260903164059 83 175 0.0 2.0 0.00 0.00 0.00 45 1019.2
20260903163559 81 175 0.0 4.0 0.00 0.00 0.00 46 1019.3
20260903163058 82 175 2.0 5.0 0.00 0.00 0.00 47 1019.2
20260903162559 81 163 2.0 5.0 0.00 0.00 0.00 47 1019.2
20260903162057 81 153 0.0 6.0 0.00 0.00 0.00 47 1019.2
20260903161558 82 134 2.0 6.0 0.00 0.00 0.00 46 1019.2
20260903161059 82 128 0.0 6.0 0.00 0.00 0.00 47 1019.2
20260903160557 82 132 0.0 6.0 0.00 0.00 0.00 47 1019.2
20260903160056 81 173 0.0 5.0 0.00 0.00 0.00 48 1019.2
20260903155558 80 188 1.0 6.0 0.00 0.00 0.00 49 1019.1
20260903155056 80 209 2.0 6.0 0.00 0.00 0.00 49 1019.2
20260903154554 80 129 2.0 5.0 0.00 0.00 0.00 50 1019.2
20260903154054 80 153 2.0 8.0 0.00 0.00 0.00 50 1019.3
20260903153553 79 173 4.0 8.0 0.00 0.00 0.00 50 1019.4
20260903153106 80 161 4.0 8.0 0.00 0.00 0.00 49 1019.4
20260903152556 79 206 4.0 8.0 0.00 0.00 0.00 50 1019.3
20260903152056 79 184 3.0 6.0 0.00 0.00 0.00 51 1019.4
20260903151553 79 225 2.0 7.0 0.00 0.00 0.00 50 1019.4
20260903151052 79 210 3.0 8.0 0.00 0.00 0.00 50 1019.3
20260903150552 79 261 4.0 8.0 0.00 0.00 0.00 50 1019.3
20260903150051 79 248 3.0 9.0 0.00 0.00 0.00 50 1019.4
20260903145549 79 196 4.0 9.0 0.00 0.00 0.00 51 1019.4
20260903145048 79 218 4.0 7.0 0.00 0.00 0.00 51 1019.3
20260903144548 78 249 1.0 8.0 0.00 0.00 0.00 52 1019.4
20260903144049 78 189 1.0 8.0 0.00 0.00 0.00 52 1019.4
20260903143545 77 256 3.0 9.0 0.00 0.00 0.00 52 1019.3
20260903143048 77 248 1.0 9.0 0.00 0.00 0.00 52 1019.4
20260903142547 78 215 2.0 8.0 0.00 0.00 0.00 52 1019.4
20260903142043 78 157 3.0 8.0 0.00 0.00 0.00 52 1019.4
20260903141543 77 190 3.0 7.0 0.00 0.00 0.00 53 1019.4
20260903141045 77 157 1.0 7.0 0.00 0.00 0.00 53 1019.4
20260903140540 76 142 2.0 4.0 0.00 0.00 0.00 53 1019.5
20260903140044 76 155 1.0 6.0 0.00 0.00 0.00 54 1019.5
20260903135538 76 136 2.0 6.0 0.00 0.00 0.00 55 1019.5
20260903135042 75 159 1.0 4.0 0.00 0.00 0.00 56 1019.4
20260903134537 75 188 0.0 4.0 0.00 0.00 0.00 56 1019.3
20260903134036 75 176 1.0 4.0 0.00 0.00 0.00 56 1019.3
20260903133538 74 199 1.0 4.0 0.00 0.00 0.00 56 1019.3
20260903133037 74 119 0.0 5.0 0.00 0.00 0.00 56 1019.2
20260903132535 74 119 1.0 5.0 0.00 0.00 0.00 57 1019.2
20260903132034 74 128 0.0 7.0 0.00 0.00 0.00 56 1019.2
20260903131533 74 138 1.0 7.0 0.00 0.00 0.00 56 1019.1
20260903131034 74 130 1.0 6.0 0.00 0.00 0.00 57 1019.1
20260903130529 73 142 2.0 5.0 0.00 0.00 0.00 57 1019.1
20260903130029 73 150 2.0 5.0 0.00 0.00 0.00 57 1019.1
20260903125528 73 144 2.0 7.0 0.00 0.00 0.00 57 1019.0
20260903125028 74 123 2.0 7.0 0.00 0.00 0.00 57 1018.9
20260903124530 74 153 3.0 6.0 0.00 0.00 0.00 57 1018.9
20260903124027 73 150 3.0 6.0 0.00 0.00 0.00 57 1018.9
20260903123525 73 155 3.0 7.0 0.00 0.00 0.00 57 1018.8
20260903123030 73 162 3.0 7.0 0.00 0.00 0.00 57 1018.8
20260903122524 73 140 3.0 6.0 0.00 0.00 0.00 58 1018.8
20260903122024 73 172 1.0 5.0 0.00 0.00 0.00 58 1018.7
20260903121525 73 169 2.0 8.0 0.00 0.00 0.00 58 1018.7
20260903121021 74 161 3.0 9.0 0.00 0.00 0.00 57 1018.7
20260903120520 74 155 4.0 9.0 0.00 0.00 0.00 56 1018.7
20260903120019 74 202 4.0 8.0 0.00 0.00 0.00 56 1018.5
20260903115517 74 205 3.0 10.0 0.00 0.00 0.00 56 1018.4
20260903115016 75 201 6.0 10.0 0.00 0.00 0.00 55 1018.3
20260903114515 75 192 4.0 10.0 0.00 0.00 0.00 56 1018.2
20260903114013 75 194 5.0 10.0 0.00 0.00 0.00 56 1018.1
20260903113513 75 198 4.0 7.0 0.00 0.00 0.00 55 1018.0
20260903113012 75 198 4.0 6.0 0.00 0.00 0.00 55 1018.1
20260903112513 75 142 0.0 3.0 0.00 0.00 0.00 55 1018.0
20260903112012 75 129 0.0 4.0 0.00 0.00 0.00 55 1017.9
20260903111514 76 129 1.0 6.0 0.00 0.00 0.00 55 1017.9
20260903111011 76 216 3.0 6.0 0.00 0.00 0.00 54 1017.8
20260903110511 76 219 3.0 5.0 0.00 0.00 0.00 55 1017.8
20260903110010 76 296 1.0 5.0 0.00 0.00 0.00 54 1017.9
20260903105510 76 312 2.0 5.0 0.00 0.00 0.00 54 1018.0
20260903105010 76 321 0.0 5.0 0.00 0.00 0.00 53 1017.9
20260903104510 76 215 1.0 5.0 0.00 0.00 0.00 53 1018.0
20260903104011 76 211 0.0 4.0 0.00 0.00 0.00 52 1017.9
20260903103509 77 173 0.0 4.0 0.00 0.00 0.00 52 1018.1
20260903103007 77 173 0.0 2.0 0.00 0.00 0.00 51 1018.1
20260903102508 77 173 0.0 2.0 0.00 0.00 0.00 51 1018.2
20260903102009 77 173 0.0 4.0 0.00 0.00 0.00 51 1018.1
20260903101507 77 225 0.0 2.0 0.00 0.00 0.00 51 1018.2
20260903101106 77 241 0.0 2.0 0.00 0.00 0.00 51 1018.2
20260903100506 77 241 1.0 5.0 0.00 0.00 0.00 50 1018.2
20260903100005 77 241 0.0 7.0 0.00 0.00 0.00 50 1018.1
20260903095504 77 241 4.0 7.0 0.00 0.00 0.00 49 1018.2
20260903095004 77 281 3.0 6.0 0.00 0.00 0.00 49 1018.1
20260903094511 77 246 1.0 7.0 0.00 0.00 0.00 48 1018.2
20260903094002 78 246 1.0 7.0 0.00 0.00 0.00 47 1018.2
20260903093503 77 304 0.0 4.0 0.00 0.00 0.00 47 1018.3
20260903093004 77 304 1.0 4.0 0.00 0.00 0.00 47 1018.2
20260903092503 77 165 0.0 6.0 0.00 0.00 0.00 47 1018.2
20260903092001 78 165 1.0 6.0 0.00 0.00 0.00 46 1018.2
20260903091601 78 146 0.0 7.0 0.00 0.00 0.00 46 1018.1
20260903091100 78 146 2.0 7.0 0.00 0.00 0.00 46 1018.1
20260903090600 77 126 0.0 4.0 0.00 0.00 0.00 46 1018.1
20260903090105 78 141 0.0 5.0 0.00 0.00 0.00 45 1018.1
20260903085559 78 155 1.0 5.0 0.00 0.00 0.00 45 1018.0
20260903085058 78 160 1.0 5.0 0.00 0.00 0.00 44 1017.9
20260903084558 78 156 1.0 5.0 0.00 0.00 0.00 44 1017.9
20260903084058 78 201 0.0 5.0 0.00 0.00 0.00 43 1017.8
20260903083557 78 199 1.0 5.0 0.00 0.00 0.00 44 1017.8
20260903083101 79 193 1.0 5.0 0.00 0.00 0.00 42 1017.8
20260903082554 79 244 0.0 4.0 0.00 0.00 0.00 42 1017.9
20260903082053 79 252 1.0 4.0 0.00 0.00 0.00 41 1017.9
20260903081558 79 263 0.0 6.0 0.00 0.00 0.00 40 1017.8
20260903081053 80 295 2.0 7.0 0.00 0.00 0.00 40 1017.8
20260903080554 80 236 2.0 7.0 0.00 0.00 0.00 38 1017.8
20260903080051 80 269 4.0 8.0 0.00 0.00 0.00 38 1017.8
20260903075551 81 263 4.0 7.0 0.00 0.00 0.00 37 1017.8
20260903075051 81 212 0.0 5.0 0.00 0.00 0.00 37 1017.8
20260903074602 81 249 1.0 9.0 0.00 0.00 0.00 37 1017.9
20260903074049 81 256 4.0 9.0 0.00 0.00 0.00 37 1017.8
20260903073549 80 200 0.0 4.0 0.00 0.00 0.00 39 1017.7
20260903073102 81 202 2.0 4.0 0.00 0.00 0.00 39 1017.8
20260903072547 81 330 1.0 4.0 0.00 0.00 0.00 37 1017.5
20260903072047 81 355 0.0 4.0 0.00 0.00 0.00 37 1017.5
20260903071604 80 320 1.0 4.0 0.00 0.00 0.00 38 1017.5
20260903071050 80 290 0.0 2.0 0.00 0.00 0.00 38 1017.5
20260903070545 81 290 0.0 0.0 0.00 0.00 0.00 37 1017.5
20260903070044 81 290 0.0 0.0 0.00 0.00 0.00 36 1017.5
20260903065543 82 290 0.0 2.0 0.00 0.00 0.00 35 1017.5
20260903065041 82 290 0.0 2.0 0.00 0.00 0.00 34 1017.5
20260903064541 83 276 0.0 4.0 0.00 0.00 0.00 34 1017.5
20260903064041 83 276 0.0 4.0 0.00 0.00 0.00 33 1017.5
20260903063540 83 300 1.0 4.0 0.00 0.00 0.00 33 1017.5
20260903063046 83 325 0.0 2.0 0.00 0.00 0.00 33 1017.5
20260903062540 83 325 0.0 2.0 0.00 0.00 0.00 34 1017.5
20260903062042 83 315 0.0 2.0 0.00 0.00 0.00 34 1017.6
20260903061539 83 262 0.0 4.0 0.00 0.00 0.00 34 1017.5
20260903061036 83 262 1.0 4.0 0.00 0.00 0.00 34 1017.6
20260903060533 83 256 0.0 4.0 0.00 0.00 0.00 34 1017.5
20260903060106 83 256 0.0 4.0 0.00 0.00 0.00 34 1017.6
20260903055533 83 234 1.0 4.0 0.00 0.00 0.00 33 1017.7
20260903055031 82 250 0.0 2.0 0.00 0.00 0.00 35 1017.7
20260903054535 82 250 0.0 0.0 0.00 0.00 0.00 34 1017.7
20260903054034 83 250 0.0 1.0 0.00 0.00 0.00 34 1017.8
20260903053531 83 250 0.0 4.0 0.00 0.00 0.00 34 1017.8
20260903053032 83 250 0.0 3.0 0.00 0.00 0.00 33 1017.8
20260903052531 84 256 0.0 5.0 0.00 0.00 0.00 33 1017.7
20260903052031 84 231 0.0 5.0 0.00 0.00 0.00 33 1017.7
20260903051531 84 238 0.0 4.0 0.00 0.00 0.00 33 1017.7
20260903051031 84 232 0.0 4.0 0.00 0.00 0.00 33 1017.7
20260903050530 84 225 0.0 5.0 0.00 0.00 0.00 34 1017.7
20260903050033 84 225 1.0 5.0 0.00 0.00 0.00 33 1017.7
20260903045531 84 214 0.0 2.0 0.00 0.00 0.00 34 1017.7
20260903045030 84 214 1.0 2.0 0.00 0.00 0.00 34 1017.7
20260903044530 85 214 0.0 2.0 0.00 0.00 0.00 33 1017.8
20260903044029 85 214 0.0 2.0 0.00 0.00 0.00 33 1017.7
20260903043529 85 239 0.0 2.0 0.00 0.00 0.00 32 1017.7
20260903043029 86 239 0.0 2.0 0.00 0.00 0.00 31 1017.6
20260903042529 86 240 0.0 2.0 0.00 0.00 0.00 31 1017.6
20260903042029 86 240 1.0 5.0 0.00 0.00 0.00 31 1017.7
20260903041528 87 210 0.0 5.0 0.00 0.00 0.00 30 1017.6
20260903041029 87 215 2.0 6.0 0.00 0.00 0.00 30 1017.6
20260903040529 86 226 2.0 6.0 0.00 0.00 0.00 31 1017.6
20260903040048 86 234 0.0 2.0 0.00 0.00 0.00 32 1017.5
20260903035528 86 234 0.0 1.0 0.00 0.00 0.00 32 1017.5
20260903035028 86 234 0.0 1.0 0.00 0.00 0.00 32 1017.4
20260903034528 86 234 0.0 1.0 0.00 0.00 0.00 32 1017.4
20260903034028 86 234 0.0 1.0 0.00 0.00 0.00 33 1017.4
20260903033527 86 234 0.0 1.0 0.00 0.00 0.00 32 1017.4
20260903033031 86 234 0.0 1.0 0.00 0.00 0.00 32 1017.4
20260903032526 86 234 0.0 1.0 0.00 0.00 0.00 32 1017.2
20260903032025 86 234 0.0 0.0 0.00 0.00 0.00 33 1017.2
20260903031531 86 234 0.0 0.0 0.00 0.00 0.00 33 1017.1
20260903031023 86 234 0.0 0.0 0.00 0.00 0.00 33 1017.1
20260903030522 86 234 0.0 0.0 0.00 0.00 0.00 33 1017.0
20260903030023 87 234 0.0 1.0 0.00 0.00 0.00 32 1016.9
20260903025523 87 234 0.0 1.0 0.00 0.00 0.00 31 1016.8
20260903025022 88 234 0.0 1.0 0.00 0.00 0.00 30 1016.8
20260903024522 88 234 0.0 1.0 0.00 0.00 0.00 30 1016.7
20260903024022 88 234 0.0 1.0 0.00 0.00 0.00 29 1016.6
20260903023521 88 234 0.0 2.0 0.00 0.00 0.00 29 1016.6
20260903023033 89 234 0.0 2.0 0.00 0.00 0.00 28 1016.6
20260903022522 89 234 0.0 4.0 0.00 0.00 0.00 27 1016.5
20260903022021 89 234 1.0 4.0 0.00 0.00 0.00 27 1016.5
20260903021521 89 248 1.0 4.0 0.00 0.00 0.00 26 1016.5
20260903021022 89 255 1.0 4.0 0.00 0.00 0.00 27 1016.4
20260903020520 90 255 1.0 5.0 0.00 0.00 0.00 26 1016.4
20260903020021 90 261 2.0 6.0 0.00 0.00 0.00 26 1016.4
20260903015520 90 267 4.0 6.0 0.00 0.00 0.00 26 1016.4
20260903015020 90 259 2.0 5.0 0.00 0.00 0.00 27 1016.3
20260903014522 90 260 1.0 6.0 0.00 0.00 0.00 27 1016.3
20260903014020 90 250 3.0 6.0 0.00 0.00 0.00 26 1016.1
20260903013520 90 276 2.0 6.0 0.00 0.00 0.00 26 1016.2
20260903013020 91 248 2.0 6.0 0.00 0.00 0.00 26 1016.2
20260903012519 91 252 3.0 6.0 0.00 0.00 0.00 25 1016.2
20260903012020 91 223 2.0 6.0 0.00 0.00 0.00 25 1016.3
20260903011519 91 234 1.0 7.0 0.00 0.00 0.00 26 1016.2
20260903011020 91 261 3.0 7.0 0.00 0.00 0.00 26 1016.2
20260903010519 91 271 1.0 6.0 0.00 0.00 0.00 26 1016.2
20260903010037 91 249 3.0 7.0 0.00 0.00 0.00 25 1016.1
20260903005522 91 242 3.0 7.0 0.00 0.00 0.00 25 1016.1
20260903005021 92 212 3.0 7.0 0.00 0.00 0.00 25 1016.1
20260903004519 92 306 4.0 7.0 0.00 0.00 0.00 24 1016.1
20260903004018 92 305 3.0 7.0 0.00 0.00 0.00 24 1016.1
20260903003518 93 329 2.0 7.0 0.00 0.00 0.00 24 1016.1
20260903003018 93 223 2.0 7.0 0.00 0.00 0.00 24 1016.1
20260903002519 93 230 3.0 7.0 0.00 0.00 0.00 24 1016.2
20260903002017 93 343 3.0 7.0 0.00 0.00 0.00 24 1016.2
20260903001528 93 297 4.0 8.0 0.00 0.00 0.00 24 1016.2
20260903001017 93 239 3.0 10.0 0.00 0.00 0.00 24 1016.3
20260903000518 93 252 6.0 10.0 0.00 0.00 0.00 24 1016.3
20260903000016 94 224 2.0 7.0 0.00 0.00 0.00 24 1016.3
20260902235516 94 254 2.0 8.0 0.00 0.00 0.00 24 1016.3
20260902235018 94 304 5.0 8.0 0.00 0.00 0.00 24 1016.3
20260902234521 94 266 3.0 6.0 0.00 0.00 0.00 25 1016.3
20260902234017 94 290 4.0 6.0 0.00 0.00 0.00 25 1016.3
20260902233515 94 242 2.0 7.0 0.00 0.00 0.00 25 1016.4
20260902233014 94 234 4.0 8.0 0.00 0.00 0.00 24 1016.5
20260902232513 94 230 5.0 11.0 0.00 0.00 0.00 25 1016.5
20260902232012 94 310 5.0 11.0 0.00 0.00 0.00 25 1016.5
20260902231529 94 244 6.0 9.0 0.00 0.00 0.00 25 1016.6
20260902231012 94 303 5.0 9.0 0.00 0.00 0.00 25 1016.7
20260902230511 94 316 3.0 7.0 0.00 0.00 0.00 25 1016.7
20260902230012 94 242 2.0 11.0 0.00 0.00 0.00 24 1016.7
20260902225510 94 292 5.0 10.0 0.00 0.00 0.00 25 1016.8
20260902225012 94 223 4.0 9.0 0.00 0.00 0.00 25 1016.8
20260902224511 94 213 5.0 10.0 0.00 0.00 0.00 25 1016.9
20260902224011 95 257 7.0 12.0 0.00 0.00 0.00 24 1016.9
20260902223509 95 236 7.0 13.0 0.00 0.00 0.00 23 1016.9
20260902223012 96 230 6.0 14.0 0.00 0.00 0.00 24 1016.9
20260902222509 96 326 4.0 9.0 0.00 0.00 0.00 24 1016.9
20260902222008 96 224 5.0 12.0 0.00 0.00 0.00 24 1016.8
20260902221507 96 301 5.0 12.0 0.00 0.00 0.00 24 1016.9
20260902221010 95 305 5.0 9.0 0.00 0.00 0.00 24 1017.0
20260902220507 95 281 4.0 8.0 0.00 0.00 0.00 24 1017.0
20260902220011 95 299 4.0 11.0 0.00 0.00 0.00 24 1017.0
20260902215506 95 263 5.0 11.0 0.00 0.00 0.00 24 1017.0
20260902215009 95 225 6.0 11.0 0.00 0.00 0.00 24 1017.1
20260902214505 94 149 3.0 11.0 0.00 0.00 0.00 25 1017.1
20260902214005 94 157 5.0 10.0 0.00 0.00 0.00 25 1017.2
20260902213504 95 215 3.0 11.0 0.00 0.00 0.00 24 1017.2
20260902213006 95 196 5.0 11.0 0.00 0.00 0.00 25 1017.3
20260902212504 95 314 2.0 11.0 0.00 0.00 0.00 24 1017.4
20260902212006 96 192 5.0 11.0 0.00 0.00 0.00 24 1017.4